TimePST,TemperatureF,Dew PointF,Humidity,Sea Level PressureIn,VisibilityMPH,Wind Direction,Wind SpeedMPH,Gust SpeedMPH,PrecipitationIn,Events,Conditions,WindDirDegrees,DateUTC
12:54 AM,46.0,44.1,93,29.99,-9999.0,North,3.5,-,N/A,,Clear,10,2012-12-15 08:54:00
1:12 AM,46.4,44.6,93,29.99,-9999.0,North,3.5,-,N/A,,Mostly Cloudy,360,2012-12-15 09:12:00
1:54 AM,46.0,44.1,93,30.00,-9999.0,North,5.8,-,N/A,,Overcast,10,2012-12-15 09:54:00
2:47 AM,46.4,44.6,93,30.01,-9999.0,North,4.6,-,N/A,,Overcast,10,2012-12-15 10:47:00
2:54 AM,46.9,44.1,90,30.02,-9999.0,North,4.6,-,N/A,,Overcast,10,2012-12-15 10:54:00
3:54 AM,45.0,43.0,93,30.03,-9999.0,North,5.8,-,N/A,,Partly Cloudy,350,2012-12-15 11:54:00
4:54 AM,43.0,42.1,97,30.02,-9999.0,NNE,4.6,-,N/A,,Scattered Clouds,20,2012-12-15 12:54:00
5:54 AM,42.1,42.1,100,30.04,7.0,North,4.6,-,N/A,,Partly Cloudy,10,2012-12-15 13:54:00
6:54 AM,42.1,41.0,96,30.04,7.0,NNE,3.5,-,N/A,,Partly Cloudy,20,2012-12-15 14:54:00
7:54 AM,46.0,43.0,89,30.05,7.0,North,5.8,-,N/A,,Partly Cloudy,10,2012-12-15 15:54:00
8:54 AM,50.0,44.1,80,30.07,7.0,NNE,4.6,-,N/A,,Partly Cloudy,30,2012-12-15 16:54:00
9:54 AM,55.0,46.9,74,30.09,7.0,NE,3.5,-,N/A,,Scattered Clouds,50,2012-12-15 17:54:00
10:54 AM,57.9,48.9,72,30.07,7.0,NNW,3.5,-,N/A,,Scattered Clouds,340,2012-12-15 18:54:00
11:54 AM,57.9,50.0,75,30.05,7.0,WNW,5.8,-,N/A,,Scattered Clouds,300,2012-12-15 19:54:00
12:54 PM,59.0,40.3,50,30.03,7.0,WNW,9.2,-,N/A,,Scattered Clouds,290,2012-12-15 20:54:00
1:54 PM,57.0,39.2,51,30.02,7.0,WNW,6.9,-,N/A,,Mostly Cloudy,290,2012-12-15 21:54:00
2:54 PM,57.0,48.9,74,30.03,7.0,Calm,Calm,-,N/A,,Mostly Cloudy,0,2012-12-15 22:54:00
3:54 PM,57.0,48.9,74,30.01,-9999.0,Variable,3.5,-,N/A,,Clear,0,2012-12-15 23:54:00
4:54 PM,55.9,46.9,72,30.01,-9999.0,East,4.6,-,N/A,,Mostly Cloudy,90,2012-12-16 00:54:00
5:54 PM,55.9,46.9,72,30.01,-9999.0,Calm,Calm,-,N/A,,Mostly Cloudy,0,2012-12-16 01:54:00
6:54 PM,55.9,48.0,75,30.04,-9999.0,West,12.7,-,N/A,,Partly Cloudy,280,2012-12-16 02:54:00
7:54 PM,55.9,48.0,75,30.06,-9999.0,West,11.5,-,N/A,,Overcast,280,2012-12-16 03:54:00
8:54 PM,57.0,48.0,72,30.07,-9999.0,WNW,13.8,24.2,N/A,,Overcast,290,2012-12-16 04:54:00
9:54 PM,55.9,46.9,72,30.09,-9999.0,West,10.4,-,N/A,,Overcast,270,2012-12-16 05:54:00
10:54 PM,55.0,46.9,74,30.10,-9999.0,WSW,4.6,-,N/A,,Overcast,250,2012-12-16 06:54:00
11:54 PM,54.0,46.9,77,30.09,-9999.0,Calm,Calm,-,N/A,,Overcast,0,2012-12-16 07:54:00